Location: Warszawa
(52.2500°N, 21.0000°E)
Time: 03:13:12
(UTC+02:00)

SPROUT - Pass Details

Date: 24 April 2024
Orbit: 437 x 450 km, 98.0° (Epoch: 23 May)

Event Time Altitude Azimuth Distance (km) Brightness Sun altitude
Rises 01:00:41 0° 81° (E) 2,465 ? -24.6°
Enters shadow 02:04:22 -60° 159° (SSE) 11,542 ? -21.9°
Maximum altitude 02:35:40 32° 67° (ENE) 799 ? -19.7°
